User: anonymous   Login
Location: Gleizolles
(44.4833°N, 6.7667°E)
Time: 15:15:30
(UTC+00:00)
Language:

UKube-1 - Orbit

View from above orbital plane
View from above orbital plane
View from above satellite
View from above satellite

Ground track
Ground track

The orbit data is extracted from the following two-line orbital elements,

1 40074U 14037F   24194.04906067  .00007379  00000-0  69284-3 0  9990
2 40074  98.3424 125.5075 0004241  18.0963 342.0406 14.94273820542493
Epoch (UTC): 12 July 2024 01:10:38
Eccentricity: 0.0004241
inclination: 98.3424°
perigee height: 581 km
apogee height: 587 km
right ascension of ascending node: 125.5075°
argument of perigee: 18.0963°
revolutions per day: 14.94273820
mean anomaly at epoch: 342.0406°
orbit number at epoch: 54249

The dashed part of the orbit path shows where the satellite is in the earth's shadow,  

DLR